Location: Newark
(15.4608°S, 41.1635°W)
Time: 16:05:55
(UTC+00:00)

Vanguard 3 - All Passes

Search period start: 26 February 2021 00:00
Search period end: 08 March 2021 00:00
Orbit: 508 x 3261 km, 33.3° (Epoch: 25 February)

Date Brightness Start Highest point End Pass type
(mag) Time Alt. Az. Time Alt. Az. Time Alt. Az.
26 Feb - 05:11:14 10° NW 05:15:00 49° NE 05:20:18 10° ESE visible
26 Feb - 07:22:31 10° W 07:27:20 33° SSW 07:34:59 10° SE visible
26 Feb - 09:35:30 10° SW 09:42:33 28° S 09:53:32 10° ESE daylight
26 Feb - 11:47:51 10° SW 11:59:16 46° SSE 12:16:45 10° E daylight
26 Feb - 14:00:34 10° WSW 14:16:25 87° SSE 14:36:45 10° ENE daylight
26 Feb - 16:16:16 10° WSW 16:33:33 45° NW 16:50:50 10° NNE daylight
26 Feb - 18:43:13 10° WNW 18:50:23 13° NW 18:57:00 10° NNW daylight
27 Feb - 03:59:19 10° N 04:01:36 15° NE 04:04:04 10° ENE night (unlit)
27 Feb - 06:08:37 10° WNW 06:12:43 50° SSW 06:19:04 10° SE visible
27 Feb - 08:21:20 10° SW 08:26:39 25° S 08:34:44 10° SE visible
27 Feb - 10:33:48 10° SW 10:42:34 34° SSE 10:56:26 10° ESE daylight
27 Feb - 12:45:49 10° SW 12:59:10 66° SSE 13:18:48 10° ENE daylight
27 Feb - 14:59:28 10° WSW 15:16:12 64° NW 15:35:42 10° NE daylight
27 Feb - 17:18:55 10° W 17:33:13 25° NW 17:46:43 10° N daylight
28 Feb - 04:55:10 10° NW 04:58:51 69° NE 05:03:48 10° ESE visible
28 Feb - 07:07:07 10° WSW 07:11:23 26° S 07:17:42 10° SE visible
28 Feb - 09:19:55 10° SW 09:26:22 26° S 09:36:15 10° ESE daylight
28 Feb - 11:31:40 10° SW 11:42:23 48° SSE 11:59:27 10° E daylight
28 Feb - 13:44:00 10° WSW 13:58:52 86° NW 14:19:11 10° NE daylight
28 Feb - 15:59:44 10° W 16:15:57 40° NW 16:33:08 10° NNE daylight
28 Feb - 18:29:54 10° NW 18:33:30 11° NW 18:37:00 10° NNW daylight
01 Mar - 03:42:29 10° NNW 03:45:23 21° NE 03:48:28 10° E night (unlit)
01 Mar - 05:52:59 10° W 05:56:44 36° SSW 06:02:07 10° SE visible
01 Mar - 08:06:01 10° SW 08:10:40 21° S 08:17:24 10° SE visible
01 Mar - 10:17:53 10° SW 10:26:05 34° SSE 10:39:13 10° E daylight
01 Mar - 12:29:25 10° SW 12:41:55 71° SSE 13:01:17 10° ENE daylight
01 Mar - 14:42:54 10° WSW 14:58:36 57° NW 15:17:59 10° NE daylight
01 Mar - 17:03:00 10° W 17:15:56 22° NW 17:28:41 10° N daylight
02 Mar - 04:39:08 10° WNW 04:42:48 82° SSW 04:47:21 10° ESE visible
02 Mar - 06:51:50 10° WSW 06:55:28 20° S 07:00:27 10° SE visible
02 Mar - 09:04:19 10° SW 09:10:13 24° SSE 09:19:05 10° ESE daylight
02 Mar - 11:15:28 10° SW 11:25:31 50° SSE 11:42:05 10° E daylight
02 Mar - 13:27:32 10° WSW 13:41:25 79° NW 14:01:28 10° NE daylight
02 Mar - 15:43:26 10° W 15:58:29 35° NW 16:15:13 10° NNE daylight
03 Mar - 03:25:51 10° NNW 03:29:16 31° NE 03:32:40 10° E night (unlit)
03 Mar - 05:37:27 10° WSW 05:40:49 27° SSW 05:45:13 10° SE visible
03 Mar - 07:50:44 10° SW 07:54:43 18° S 08:00:10 10° SE visible
03 Mar - 10:01:57 10° SW 10:09:37 34° SSE 10:22:03 10° E daylight
03 Mar - 12:13:06 10° SW 12:24:44 77° SSE 12:43:39 10° ENE daylight
03 Mar - 14:26:32 10° WSW 14:41:07 51° NW 15:00:03 10° NE daylight
03 Mar - 16:47:33 10° WNW 16:58:49 18° NW 17:10:18 10° N daylight
04 Mar - 02:13:52 10° N 02:15:25 12° NNE 02:16:53 10° NE night (unlit)
04 Mar - 04:23:11 10° WNW 04:26:48 55° SSW 04:30:54 10° SE night (unlit)
04 Mar - 06:36:42 10° SW 06:39:35 16° S 06:43:14 10° SSE visible
04 Mar - 08:48:41 10° SSW 08:54:05 23° SSE 09:02:03 10° ESE daylight
04 Mar - 10:59:19 10° SW 11:08:40 54° SSE 11:24:40 10° ENE daylight
04 Mar - 13:11:12 10° WSW 13:24:04 71° NW 13:43:34 10° NE daylight
04 Mar - 15:27:24 10° W 15:41:10 30° NW 15:57:03 10° NNE daylight
05 Mar - 03:09:17 10° NW 03:13:12 47° NNE 03:16:47 10° ESE night (unlit)
05 Mar - 05:22:02 10° WSW 05:24:54 20° SSW 05:28:21 10° SSE visible
05 Mar - 07:35:28 10° SSW 07:38:47 15° S 07:43:03 10° SE visible
05 Mar - 09:45:59 10° SW 09:53:09 35° SSE 10:04:55 10° E daylight
05 Mar - 11:56:51 10° WSW 12:07:37 85° SSE 12:25:53 10° ENE daylight
05 Mar - 14:10:21 10° W 14:23:48 44° NW 14:41:55 10° NNE daylight
05 Mar - 16:32:43 10° WNW 16:41:53 15° NNW 16:51:25 10° N daylight
06 Mar - 01:55:59 10° NNW 01:59:22 19° NNE 02:02:10 10° ENE night (unlit)
06 Mar - 04:07:17 10° W 04:10:48 38° SSW 04:14:29 10° SE night (unlit)
06 Mar - 06:21:47 10° SSW 06:23:44 12° S 06:25:56 10° SSE visible
06 Mar - 08:32:59 10° SSW 08:37:56 22° SSE 08:45:08 10° ESE daylight
06 Mar - 10:43:12 10° SW 10:51:53 58° SSE 11:07:10 10° ENE daylight
06 Mar - 12:55:00 10° WSW 13:06:53 62° NNW 13:25:30 10° NE daylight
06 Mar - 15:11:42 10° W 15:24:02 25° NW 15:38:36 10° NNE daylight
07 Mar - 02:52:47 10° NW 02:57:10 73° NNE 03:00:50 10° ESE night (unlit)
07 Mar - 05:06:46 10° SW 05:08:59 15° SSW 05:11:26 10° SSE visible
07 Mar - 07:20:15 10° SSW 07:22:52 13° SSE 07:26:01 10° SE visible
07 Mar - 09:30:01 10° SW 09:36:41 36° SSE 09:47:48 10° E daylight
07 Mar - 11:40:42 10° WSW 11:50:38 87° NNW 12:08:01 10° NE daylight
07 Mar - 13:54:23 10° W 14:06:39 37° NNW 14:23:35 10° NNE daylight
07 Mar - 16:19:00 10° NW 16:25:09 12° NNW 16:31:33 10° N daylight
